Weather in Churchill

Canada     58°46′07″N   94°09′59″W
temp.,
°C
wind,
m/s
gust,
m/s
humid.,
%
clouds,
%
prec.,
mm/h
press.,
hPa
HPBL,
m
12 april, mon
mon1201:00−17n4895100 0.0 103584
04:00−17n5995100 0.0 1037167
07:00−18n51094100 0.0 1038234
10:00−16n6789100 0.0 1040287
13:00−13n6685100 0.0 1039363
16:00−12n6782100 0.0 1039401
19:00−12n5886100 0.0 1040355
22:00−14n5890100 0.0 1041165
13 april, tue
tue1301:00−15n599170 0.0 1041115
04:00−19n4798100 0.0 104274
07:00−21n599952 0.0 1044101
10:00−17nne510905 0.0 1045254
13:00−14nne56815 0.0 1045346
16:00−12nne568246 0.0 1045367
19:00−15nne33925 0.0 104438
22:00−20ne331005 0.0 10449
14 april, wed
wed1401:00−21e221005 0.0 10449
04:00−22s1110052 0.0 10449
07:00−23w111005 0.0 10449
10:00−17ene118553 0.0 1043100
13:00−12ese227736 0.0 1042236
16:00−8se237014 0.0 1040342
19:00−10se33855 0.0 103935
22:00−16sse44915 0.0 103831
15 april, thu
thu1501:00−18s3394100 0.0 103720
04:00−19sse3399100 0.0 103721
07:00−16s3494100 0.0 103646
10:00−9sse468098 0.0 1035234
13:00−6s5670100 0.0 1034403
16:00−4s5668100 0.0 1033436
19:00−5sse4582100 0.0 103273
22:00−7sse4588100 0.0 103254
16 april, fri
fri1601:00−8sse3390100 0.0 103137
04:00−12ssw339520 0.0 103010
07:00−15wsw229722 0.0 103010
10:00−7wsw22865 0.0 1029113
13:00−3wsw12835 0.0 1029251
16:00−1wsw228723 0.0 1028267
19:00−2wsw119088 0.0 102810
22:00−3sw3294100 0.0 102735